[Date Prev][Date Next][Thread Prev][Thread Next] - [Date Index][Thread Index][Author Index]
2 Line ISS Keps 12-18
- Subject: [sarex] 2 Line ISS Keps 12-18
- From: "Dave Larsen PhD" <doc@xxxxxxxxxxx>
- Date: Sat, 17 Dec 2005 19:13:43 -0800
ISS
1 25544U 98067A 05351.85552083 .00011807 00000-0 88337-4 0 9675
2 25544 051.6459 039.5650 0010512 052.6779 301.1295 15.73138625404588
----
Via the sarex mailing list at AMSAT.ORG courtesy of AMSAT-NA.
To unsubscribe, send "unsubscribe sarex" to Majordomo@amsat.org
AMSAT Home